TimeCDT,TemperatureF,Dew PointF,Humidity,Sea Level PressureIn,VisibilityMPH,Wind Direction,Wind SpeedMPH,Gust SpeedMPH,PrecipitationIn,Events,Conditions,WindDirDegrees,DateUTC
12:54 AM,33.1,23.0,66,29.99,10.0,West,9.2,-,N/A,,Partly Cloudy,270,2013-03-12 05:54:00
1:54 AM,32.0,24.1,73,30.02,10.0,West,6.9,-,N/A,,Clear,270,2013-03-12 06:54:00
2:54 AM,30.9,25.0,79,30.03,10.0,West,4.6,-,N/A,,Clear,260,2013-03-12 07:54:00
3:54 AM,30.9,24.1,76,30.02,10.0,West,8.1,-,N/A,,Clear,280,2013-03-12 08:54:00
4:54 AM,30.0,24.1,79,30.03,10.0,West,8.1,-,N/A,,Clear,280,2013-03-12 09:54:00
5:54 AM,30.0,24.1,79,30.06,10.0,WNW,4.6,-,N/A,,Clear,290,2013-03-12 10:54:00
6:54 AM,28.9,23.0,78,30.07,10.0,West,8.1,-,N/A,,Clear,270,2013-03-12 11:54:00
7:54 AM,28.9,23.0,78,30.09,10.0,West,6.9,-,N/A,,Clear,270,2013-03-12 12:54:00
8:54 AM,30.9,24.1,76,30.12,10.0,West,13.8,-,N/A,,Clear,260,2013-03-12 13:54:00
9:54 AM,34.0,24.1,67,30.13,10.0,West,12.7,-,N/A,,Clear,280,2013-03-12 14:54:00
10:54 AM,36.0,24.1,62,30.12,10.0,West,8.1,-,N/A,,Clear,260,2013-03-12 15:54:00
11:54 AM,39.9,25.0,55,30.12,10.0,West,12.7,-,N/A,,Clear,280,2013-03-12 16:54:00
12:54 PM,44.1,27.0,51,30.11,10.0,West,9.2,-,N/A,,Clear,270,2013-03-12 17:54:00
1:54 PM,46.9,27.0,46,30.09,10.0,West,15.0,27.6,N/A,,Partly Cloudy,280,2013-03-12 18:54:00
2:54 PM,46.9,28.0,48,30.07,10.0,WNW,17.3,24.2,N/A,,Mostly Cloudy,300,2013-03-12 19:54:00
3:54 PM,46.9,27.0,46,30.08,10.0,WNW,21.9,31.1,N/A,,Overcast,290,2013-03-12 20:54:00
4:54 PM,45.0,27.0,49,30.09,10.0,WNW,19.6,28.8,0.01,,Overcast,290,2013-03-12 21:54:00
5:54 PM,44.1,27.0,51,30.11,10.0,WNW,20.7,28.8,N/A,,Scattered Clouds,300,2013-03-12 22:54:00
6:54 PM,39.9,23.0,51,30.14,10.0,WNW,25.3,36.8,N/A,,Scattered Clouds,300,2013-03-12 23:54:00
7:54 PM,37.9,23.0,55,30.16,10.0,West,16.1,23.0,N/A,,Partly Cloudy,280,2013-03-13 00:54:00
8:54 PM,37.0,25.0,62,30.17,10.0,WNW,18.4,23.0,N/A,,Scattered Clouds,290,2013-03-13 01:54:00
9:54 PM,37.0,24.1,59,30.18,10.0,WNW,17.3,25.3,N/A,,Overcast,300,2013-03-13 02:54:00
10:54 PM,35.1,23.0,61,30.20,10.0,WNW,16.1,23.0,N/A,,Overcast,300,2013-03-13 03:54:00
11:54 PM,34.0,21.9,61,30.22,10.0,WNW,15.0,21.9,N/A,,Overcast,300,2013-03-13 04:54:00